Location: NJAA Observatory
(40.6819°N, 74.8979°W)
Time: 06:13:50
(UTC-04:00)

Vanguard 1 - All Passes

Search period start: 25 October 2014 00:00
Search period end: 03 November 2014 23:00
Orbit: 652 x 3835 km, 34.2° (Epoch: 22 October)

Date Brightness Start Highest point End Pass type
(mag) Time Alt. Az. Time Alt. Az. Time Alt. Az.
25 Oct - 08:55:44 10° SW 08:59:39 23° SSE 09:03:09 10° ESE daylight
25 Oct - 11:15:00 10° WSW 11:19:08 40° S 11:24:03 10° ESE daylight
25 Oct - 13:34:30 10° WSW 13:38:58 30° SSW 13:45:27 10° SE daylight
25 Oct - 15:56:17 10° SW 15:59:48 14° SSW 16:04:09 10° S daylight
26 Oct - 06:59:35 10° S 07:01:08 11° SSE 07:02:35 10° SE visible
26 Oct - 09:16:45 10° SW 09:21:01 29° SSE 09:24:52 10° ESE daylight
26 Oct - 11:36:25 10° WSW 11:40:31 39° S 11:45:34 10° ESE daylight
26 Oct - 13:56:14 10° WSW 14:00:28 24° SSW 14:06:25 10° SSE daylight
27 Oct - 07:18:50 10° SSW 07:22:37 16° SSE 07:25:43 10° ESE daylight
27 Oct - 09:38:00 10° WSW 09:42:24 34° S 09:46:27 10° ESE daylight
27 Oct - 11:57:53 10° WSW 12:01:56 35° S 12:07:00 10° ESE daylight
27 Oct - 14:18:16 10° WSW 14:22:00 18° SSW 14:26:55 10° SSE daylight
28 Oct - 07:39:19 10° SSW 07:44:05 22° SSE 07:47:47 10° ESE daylight
28 Oct - 09:59:22 10° WSW 10:03:46 38° S 10:07:57 10° ESE daylight
28 Oct - 12:19:25 10° WSW 12:23:20 29° SSW 12:28:16 10° SE daylight
28 Oct - 14:41:06 10° SW 14:43:34 12° SSW 14:46:26 10° S daylight
29 Oct - 05:42:27 10° S 05:45:07 12° SSE 05:47:26 10° SE visible
29 Oct - 08:00:17 10° SW 08:05:32 28° SSE 08:09:31 10° ESE daylight
29 Oct - 10:20:50 10° WSW 10:25:09 38° S 10:29:24 10° ESE daylight
29 Oct - 12:41:07 10° WSW 12:44:45 23° SSW 12:49:18 10° SE daylight
30 Oct - 06:01:36 10° SSW 06:06:43 17° SSE 06:10:34 10° ESE visible
30 Oct - 08:21:31 10° SW 08:26:57 34° S 08:31:05 10° ESE daylight
30 Oct - 10:42:20 10° WSW 10:46:32 36° S 10:50:47 10° ESE daylight
30 Oct - 13:03:05 10° WSW 13:06:11 17° SSW 13:09:55 10° SSE daylight
31 Oct - 06:21:56 10° SSW 06:28:16 23° SSE 06:32:43 10° ESE visible
31 Oct - 08:42:56 10° WSW 08:48:22 39° S 08:52:33 10° ESE daylight
31 Oct - 11:03:55 10° WSW 11:07:54 31° SSW 11:12:03 10° SE daylight
31 Oct - 13:25:49 10° SW 13:27:38 12° SSW 13:29:37 10° S daylight
01 Nov - 04:24:31 10° S 04:28:44 13° SSE 04:32:11 10° SE visible
01 Nov - 06:42:49 10° SW 06:49:48 29° SSE 06:54:29 10° ESE visible
01 Nov - 09:04:27 10° WSW 09:09:47 41° S 09:13:57 10° ESE daylight
01 Nov - 11:25:36 10° WSW 11:29:15 25° SSW 11:33:08 10° SE daylight
02 Nov - 03:43:29 10° SSW 03:50:25 18° SSE 03:55:24 10° ESE visible
02 Nov - 06:04:02 10° SW 06:11:18 36° S 06:16:04 10° ESE visible
02 Nov - 08:26:03 10° WSW 08:31:10 40° S 08:35:18 10° ESE daylight
02 Nov - 10:47:29 10° WSW 10:50:35 18° SSW 10:53:54 10° SSE daylight
03 Nov - 04:03:37 10° SSW 04:12:04 25° SSE 04:17:40 10° ESE visible
03 Nov - 06:25:28 10° WSW 06:32:47 41° S 06:37:32 10° ESE daylight
03 Nov - 08:47:41 10° WSW 08:52:31 36° SSW 08:56:34 10° SE daylight
03 Nov - 11:09:53 10° SW 11:11:54 13° SSW 11:14:01 10° S daylight
